Lake Spivey Weather Center

Moon Phase Calendar



Lake Spivey Water Level
Online Cameras

 


      

Current Conditions in Stockbridge
2/28/2021 8:08:13 PM

70°F
Feels Like 70
Clear
Humidity
73%
Pressure
30.06"
Wind
5.8 mph (SSW)
Dew Point
61°F
UV Index
0/10 (Low)
Visibility
6 mi

Hourly Forecast

Date & Time Sun, Feb 28
8:00 PM
Sun, Feb 28
9:00 PM
Sun, Feb 28
10:00 PM
Sun, Feb 28
11:00 PM
Mon, Mar 1
12:00 AM
Mon, Mar 1
1:00 AM
Mon, Mar 1
2:00 AM
Mon, Mar 1
3:00 AM
Mon, Mar 1
4:00 AM
Mon, Mar 1
5:00 AM
Mon, Mar 1
6:00 AM
Mon, Mar 1
7:00 AM
Mon, Mar 1
8:00 AM
Mon, Mar 1
9:00 AM
Mon, Mar 1
10:00 AM
Mon, Mar 1
11:00 AM
Mon, Mar 1
12:00 PM
Mon, Mar 1
1:00 PM
Mon, Mar 1
2:00 PM
Mon, Mar 1
3:00 PM
Mon, Mar 1
4:00 PM
Mon, Mar 1
5:00 PM
Mon, Mar 1
6:00 PM
Mon, Mar 1
7:00 PM
Mon, Mar 1
8:00 PM
Mon, Mar 1
9:00 PM
Mon, Mar 1
10:00 PM
Mon, Mar 1
11:00 PM
Tue, Mar 2
12:00 AM
Tue, Mar 2
1:00 AM
Tue, Mar 2
2:00 AM
Tue, Mar 2
3:00 AM
Tue, Mar 2
4:00 AM
Tue, Mar 2
5:00 AM
Tue, Mar 2
6:00 AM
Tue, Mar 2
7:00 AM
Tue, Mar 2
8:00 AM
Tue, Mar 2
9:00 AM
Tue, Mar 2
10:00 AM
Tue, Mar 2
11:00 AM
Tue, Mar 2
12:00 PM
Tue, Mar 2
1:00 PM
Tue, Mar 2
2:00 PM
Tue, Mar 2
3:00 PM
Tue, Mar 2
4:00 PM
Tue, Mar 2
5:00 PM
Tue, Mar 2
6:00 PM
Tue, Mar 2
7:00 PM
Condition
Clear

Clouds

Clouds

Clouds

Clouds

Clouds

Clouds

Clouds

Clouds

Clouds

Rain

Rain

Rain

Clouds

Clouds

Clouds

Clouds

Clouds

Clouds

Clouds

Clouds

Clouds

Clouds

Clouds

Clouds

Clouds

Clouds

Clouds

Clouds

Clouds

Clouds

Clouds

Clouds

Clouds

Clouds

Clouds

Clouds

Clouds

Clouds

Clouds

Clouds

Clouds

Clouds

Rain

Rain

Rain

Rain

Rain
Temperature 70°F69°F68°F67°F66°F66°F65°F65°F65°F66°F66°F62°F60°F60°F61°F60°F60°F60°F60°F59°F58°F57°F55°F55°F53°F52°F52°F52°F51°F50°F50°F49°F49°F48°F47°F47°F47°F48°F49°F50°F50°F51°F51°F50°F46°F44°F43°F43°F
Feels Like 69°F67°F65°F64°F64°F63°F62°F62°F62°F63°F63°F55°F55°F55°F55°F56°F56°F55°F55°F54°F52°F50°F49°F49°F46°F46°F45°F44°F42°F43°F43°F43°F43°F41°F41°F39°F40°F39°F40°F42°F42°F42°F43°F42°F39°F35°F36°F35°F
Cloudiness 1%49%78%93%98%100%100%100%100%100%100%100%100%100%100%100%100%100%100%100%100%100%100%100%100%100%100%100%100%100%100%100%100%100%100%100%100%100%100%100%100%100%100%100%100%100%100%100%
Visibility 6 mi6 mi6 mi6 mi6 mi6 mi6 mi6 mi6 mi6 mi6 mi6 mi6 mi6 mi6 mi6 mi6 mi6 mi6 mi6 mi6 mi6 mi6 mi6 mi6 mi6 mi6 mi6 mi6 mi6 mi6 mi6 mi6 mi6 mi6 mi6 mi6 mi6 mi6 mi6 mi6 mi6 mi6 mi6 mi5 mi6 mi6 mi3 mi
Precipitation 7%0%0%0%0%0%0%0%1%10%32%64%86%75%72%68%56%41%0%0%0%5%5%9%0%0%0%0%0%0%0%0%0%0%0%0%0%0%5%1%5%1%50%61%88%92%96%100%
Humidity 73%76%77%81%85%88%89%90%89%86%87%78%74%72%70%70%69%67%67%69%70%68%66%68%67%57%50%46%46%47%49%50%52%54%62%62%56%55%58%58%59%57%58%63%75%81%85%88%
Dew Point 61°F61°F60°F61°F61°F62°F62°F62°F62°F62°F62°F55°F52°F52°F51°F51°F50°F50°F49°F49°F49°F46°F45°F44°F43°F38°F34°F31°F29°F29°F30°F31°F32°F33°F35°F35°F32°F33°F35°F37°F37°F37°F37°F38°F39°F38°F39°F40°F
Pressure 30.06"30.03"30"30"29.97"29.97"29.94"29.94"29.94"29.94"29.97"30"30.03"30.06"30.06"30.09"30.12"30.12"30.12"30.09"30.12"30.15"30.18"30.21"30.21"30.24"30.24"30.24"30.24"30.24"30.24"30.24"30.24"30.24"30.27"30.27"30.3"30.3"30.3"30.27"30.27"30.24"30.21"30.18"30.15"30.15"30.12"30.15"
Wind Speed 8.3 mph9.8 mph10.4 mph10.8 mph10.7 mph11.6 mph13.1 mph13.1 mph13.6 mph12.9 mph12.5 mph14.8 mph9.7 mph10.2 mph10.3 mph7.7 mph6.8 mph8.4 mph8.3 mph8.3 mph9.5 mph11 mph9.2 mph8 mph10.5 mph6.4 mph7 mph7.1 mph8.8 mph5.8 mph5.1 mph4.3 mph4.4 mph6.1 mph6.4 mph7.6 mph6.3 mph9.1 mph10 mph9.9 mph9.5 mph11.3 mph9.6 mph9.4 mph8.6 mph11.8 mph8.6 mph9.9 mph
Wind
Direction
209°
SSW
208°
SSW
215°
SW
223°
SW
223°
SW
222°
SW
219°
SW
226°
SW
230°
SW
230°
SW
240°
WSW
329°
NNW
323°
NW
325°
NW
326°
NW
324°
NW
313°
NW
312°
NW
304°
NW
290°
WNW
306°
NW
320°
NW
330°
NNW
345°
NNW
347°
NNW
340°
NNW
332°
NNW
339°
NNW
343°
NNW
341°
NNW
14°
NNE
53°
NE
29°
NNE
72°
ENE
66°
ENE
81°
E
90°
E
88°
E
105°
ESE
106°
ESE
110°
ESE
105°
ESE
109°
ESE
111°
ESE
108°
ESE
102°
ESE
86°
E
105°
ESE

Daily Forecast

Date High Low Precip. Humidity
Today
Feb 28

Rain
76 °F
58 °F
84%
59%
Monday
Mar 1

Rain
66 °F
52 °F
86%
69%
Tuesday
Mar 2

Rain
51 °F
42 °F
100%
59%
Wednesday
Mar 3

Rain
63 °F
43 °F
100%
54%
Thursday
Mar 4

Clear
64 °F
46 °F
0%
36%
Friday
Mar 5

Clear
61 °F
40 °F
0%
32%
Saturday
Mar 6

Clouds
59 °F
41 °F
0%
38%
Sunday
Mar 7

Clear
57 °F
37 °F
0%
37%
Monday
Mar 8

Clear
61 °F
40 °F
0%
30%
Tuesday
Mar 9

Clear
64 °F
42 °F
0%
30%
Wednesday
Mar 10

Clear
66 °F
44 °F
0%
46%
Thursday
Mar 11

Clear
71 °F
48 °F
0%
42%
Friday
Mar 12

Clear
76 °F
51 °F
0%
35%
Saturday
Mar 13

Clear
73 °F
53 °F
0%
45%
Sunday
Mar 14

Rain
66 °F
55 °F
100%
73%
Monday
Mar 15

Rain
71 °F
59 °F
100%
85%


Temperature 8-14 Day Outlook



Precipitation 8-14 Day Outlook




Quick Links
Lake Spivey News
Lake Spivey Photos
Lake Spivey Videos




About Us
Contact Us
Site Map
Search Site
Advertise With Us
   
Spivey.LakesOnline.com
THE LAKE SPIVEY WEBSITE

Copyright 2021, Lakes Online
Privacy    |    Legal